ICEYE-X33 (60548 NORAD) Tracking and Keplerian Element Data

This shows tracking and keplerian element data for the satellite.

Feedback or suggestion? Click here.




ElementValue
Catalog60548
NameICEYE-X33
Epoch Orbit849
Epoch Day286.79525255
Epoch Year2024
RAAN1.3988
Inclination97.742
Eccentricity0.0004514
Argument of Perigee339.6117
Mean Anonmoly20.4922
Mean Motion14.93869919
Decay Rate0.00012301
L11 60548U 24149CJ 24286.79525255 .00012301 00000+0 11614-2 0 9996
L22 60548 97.7420 1.3988 0004514 339.6117 20.4922 14.93869919 8496



Live tracking and technical data element details for ICEYE-X33 (NORAD 60548). ICEYE-X33 can be tracked NOW for your location showing map with azimuth and elevation plus other details from your city location.







IsCatalogInMostPopularTable: catalog: 60548, numindb: 5
Update: records affected: 1



GetName: 60548 ICEYE-X33

Hit Count: updated at: Tue, 03 Dec 2024 01:43:50 GMT